Location: Flotzheim
(48.8375°N, 10.8136°E)
Time: 17:32:44
(UTC+00:00)

Cosmos 44 - Pass Details

Date: 23 January 2021
Orbit: 572 x 789 km, 65.1° (Epoch: 01 March)

Event Time Altitude Azimuth Distance (km) Brightness Sun altitude
Rises 17:44:01 0° 203° (SSW) 2,963 7.0 -16.8°
Reaches altitude 10° 17:46:16 10° 199° (SSW) 2,090 6.1 -17.2°
Maximum altitude 17:50:55 56° 122° (ESE) 832 3.4 -18.0°
Enters shadow 17:52:58 33° 60° (ENE) 1,200 4.0 -18.3°
